Hourly Data Report for October 09, 2016

All times are specified in Local Standard Time (LST). Add 1 hour to adjust for Daylight Saving Time where and when it is observed.

SAINT JOHN A
NEW BRUNSWICK

45°18'58.000" N
65°53'24.000" W
108.80 m
8104901
71609
YSJ

Download Data

Hourly Data (October 2016)
Hourly Data Report for October 9, 2016
Temp Definition
°C
Dew Point Temp Definition
°C
Rel Hum Definition
%
Wind Dir Definition
10's deg

Wind Spd Definition
km/h
Visibility Definition
km
Stn Press Definition
kPa
Hmdx Definition


Wind Chill Definition


Weather Definition


TIME
00:00 Legend Double Dagger 15.2 15.2 100 19 21 16.1 100.37     LegendNANA
01:00 Legend Double Dagger 15.3 15.3 100 20 27 8.1 100.33     Fog
02:00 Legend Double Dagger 15.1 15.1 100 20 24 4.8 100.32     Fog
03:00 Legend Double Dagger 15.1 15.1 100 21 21 3.2 100.27     Fog
04:00 Legend Double Dagger 15.0 15.0 100 23 22 3.2 100.30     Fog
05:00 Legend Double Dagger 14.8 14.8 100 22 16 3.2 100.26     Fog
06:00 Legend Double Dagger 14.5 14.5 100 22 13 3.2 100.27     Rain,Fog
07:00 Legend Double Dagger 14.5 14.5 100 20 9 4.0 100.29     Rain,Fog
08:00 Legend Double Dagger 14.7 14.7 100 28 10 8.1 100.35     Drizzle,Fog
09:00 Legend Double Dagger 13.7 12.9 95 32 16 16.1 100.43     LegendNANA
10:00 Legend Double Dagger 12.8 10.4 85 34 14 24.1 100.37     LegendNANA
11:00 Legend Double Dagger 12.4 10.3 87 1 16 24.1 100.38     Cloudy
12:00 Legend Double Dagger 12.8 10.9 88 35 13 24.1 100.40     LegendNANA
13:00 Legend Double Dagger 12.7 12.1 96 36 12 24.1 100.35     Rain
14:00 Legend Double Dagger 12.1 12.0 99 36 10 8.1 100.40     Rain,Fog
15:00 Legend Double Dagger 11.5 11.5 100 36 17 9.7 100.40     Rain,Fog
16:00 Legend Double Dagger 10.2 10.2 100 36 21 24.1 100.38     Rain
17:00 Legend Double Dagger 9.7 9.4 98 2 15 24.1 100.44     Cloudy
18:00 Legend Double Dagger 9.4 9.3 99 1 20 24.1 100.39     LegendNANA
19:00 Legend Double Dagger 9.2 9.2 100 1 23 12.9 100.44     Rain,Fog
20:00 Legend Double Dagger 8.7 8.7 100 36 27 6.4 100.38     Rain,Fog
21:00 Legend Double Dagger 8.2 8.2 100 36 28 4.8 100.33     Rain,Fog
22:00 Legend Double Dagger 8.4 8.4 100 1 32 4.8 100.25     Rain,Fog
23:00 Legend Double Dagger 8.4 8.4 100 1 33 4.8 100.16     Rain,Fog

Notes on Data Quality.

Legend

  • E = Estimated
  • M = Missing
  • NA = Not Available
  • ‡ = Partner data that is not subject to review by the National Climate Archives
Date modified: